| time (UTC) | temp C | wind direction | speed KPH | gust KPH | rain 1hr cm | rain 24hr cm | rain mn cm | humidity % | barometer mb |
| 20260507001510 | 11 | 188 | 0.0 | 6.4 | 0.00 | 0.00 | 0.00 | 87 | 1007.6 |
| 20260507000015 | 11 | 188 | 1.6 | 4.8 | 0.00 | 0.00 | 0.00 | 87 | 1007.7 |
| 20260506230011 | 10 | 188 | 0.0 | 3.2 | 0.00 | 0.00 | 0.00 | 89 | 1007.1 |
| 20260506224517 | 10 | 188 | 0.0 | 1.6 | 0.00 | 0.00 | 0.00 | 89 | 1006.9 |
| 20260506223017 | 10 | 188 | 0.0 | 0.0 | 0.00 | 0.00 | 0.00 | 88 | 1006.5 |
| 20260506221523 | 10 | 188 | 0.0 | 0.0 | 0.00 | 0.00 | 0.00 | 87 | 1006.2 |
| 20260506220026 | 10 | 188 | 0.0 | 0.0 | 0.00 | 0.00 | 0.00 | 86 | 1006.3 |
| 20260506214538 | 10 | 188 | 0.0 | 0.0 | 0.00 | 0.00 | 0.00 | 85 | 1006.5 |
| 20260506213020 | 11 | 188 | 0.0 | 0.0 | 0.00 | 0.00 | 0.00 | 84 | 1006.5 |
| 20260506211521 | 11 | 188 | 0.0 | 0.0 | 0.00 | 0.00 | 0.00 | 82 | 1006.6 |
| 20260506210026 | 12 | 188 | 0.0 | 0.0 | 0.00 | 0.00 | 0.00 | 82 | 1006.7 |
| 20260506204527 | 12 | 188 | 0.0 | 0.0 | 0.00 | 0.00 | 0.00 | 81 | 1006.9 |
| 20260506203026 | 12 | 188 | 0.0 | 0.0 | 0.00 | 0.00 | 0.00 | 81 | 1006.8 |
| 20260506201518 | 12 | 188 | 0.0 | 1.6 | 0.00 | 0.00 | 0.00 | 79 | 1007.0 |
| 20260506200019 | 12 | 188 | 0.0 | 6.4 | 0.00 | 0.00 | 0.00 | 78 | 1007.1 |
| 20260506194522 | 12 | 188 | 0.0 | 11.3 | 0.00 | 0.00 | 0.00 | 79 | 1006.9 |
| 20260506193024 | 13 | 188 | 4.8 | 11.3 | 0.00 | 0.00 | 0.00 | 78 | 1006.9 |
| 20260506191528 | 13 | 188 | 0.0 | 0.0 | 0.00 | 0.00 | 0.00 | 77 | 1006.6 |
| 20260506190028 | 13 | 188 | 0.0 | 0.0 | 0.00 | 0.00 | 0.00 | 75 | 1006.1 |
| 20260506184539 | 13 | 188 | 0.0 | 0.0 | 0.00 | 0.00 | 0.00 | 73 | 1005.8 |
| 20260506183013 | 14 | 188 | 0.0 | 0.0 | 0.00 | 0.00 | 0.00 | 72 | 1005.7 |
| 20260506181513 | 14 | 188 | 0.0 | 1.6 | 0.00 | 0.00 | 0.00 | 71 | 1005.6 |
| 20260506180016 | 15 | 188 | 1.6 | 4.8 | 0.00 | 0.00 | 0.00 | 69 | 1005.5 |
| 20260506174501 | 15 | 188 | 0.0 | 0.0 | 0.00 | 0.00 | 0.00 | 70 | 1005.4 |
| 20260506173004 | 16 | 188 | 0.0 | 1.6 | 0.00 | 0.00 | 0.00 | 67 | 1005.1 |
| 20260506171505 | 16 | 188 | 0.0 | 1.6 | 0.00 | 0.00 | 0.00 | 67 | 1005.3 |
| 20260506170011 | 16 | 188 | 0.0 | 0.0 | 0.00 | 0.00 | 0.00 | 65 | 1005.0 |
| 20260506164516 | 17 | 188 | 0.0 | 3.2 | 0.00 | 0.00 | 0.00 | 63 | 1005.3 |
| 20260506163003 | 18 | 188 | 1.6 | 3.2 | 0.00 | 0.00 | 0.00 | 61 | 1005.3 |
| 20260506161506 | 18 | 174 | 3.2 | 17.7 | 0.00 | 0.00 | 0.00 | 57 | 1005.4 |
| 20260506160010 | 18 | 342 | 1.6 | 4.8 | 0.00 | 0.00 | 0.00 | 56 | 1005.6 |
| 20260506154512 | 18 | 276 | 1.6 | 4.8 | 0.00 | 0.00 | 0.00 | 55 | 1005.8 |
| 20260506153021 | 19 | 188 | 3.2 | 11.3 | 0.00 | 0.00 | 0.00 | 52 | 1005.9 |
| 20260506151503 | 20 | 125 | 1.6 | 11.3 | 0.00 | 0.00 | 0.00 | 50 | 1006.0 |
| 20260506150004 | 20 | 188 | 0.0 | 9.7 | 0.00 | 0.00 | 0.00 | 51 | 1006.0 |
| 20260506144515 | 20 | 188 | 1.6 | 4.8 | 0.00 | 0.00 | 0.00 | 48 | 1006.1 |
| 20260506143015 | 19 | 188 | 1.6 | 6.4 | 0.00 | 0.00 | 0.00 | 51 | 1006.5 |
| 20260506141518 | 19 | 188 | 1.6 | 9.7 | 0.00 | 0.00 | 0.00 | 50 | 1006.6 |
| 20260506140021 | 19 | 188 | 4.8 | 9.7 | 0.00 | 0.00 | 0.00 | 48 | 1006.7 |
| 20260506134508 | 20 | 188 | 3.2 | 9.7 | 0.00 | 0.00 | 0.00 | 46 | 1006.8 |
| 20260506133009 | 21 | 188 | 0.0 | 9.7 | 0.00 | 0.00 | 0.00 | 45 | 1006.8 |
| 20260506131521 | 20 | 75 | 1.6 | 9.7 | 0.00 | 0.00 | 0.00 | 47 | 1007.0 |
| 20260506130020 | 20 | 282 | 3.2 | 9.7 | 0.00 | 0.00 | 0.00 | 47 | 1007.1 |
| 20260506124522 | 21 | 188 | 3.2 | 12.9 | 0.00 | 0.00 | 0.00 | 46 | 1007.2 |
| 20260506123006 | 20 | 258 | 3.2 | 11.3 | 0.00 | 0.00 | 0.00 | 48 | 1007.2 |
| 20260506121510 | 19 | 117 | 4.8 | 12.9 | 0.00 | 0.00 | 0.00 | 50 | 1007.3 |
| 20260506120021 | 19 | 274 | 4.8 | 19.3 | 0.00 | 0.00 | 0.00 | 51 | 1007.4 |
| 20260506114527 | 20 | 188 | 6.4 | 14.5 | 0.00 | 0.00 | 0.00 | 49 | 1007.4 |
| 20260506113035 | 19 | 174 | 4.8 | 14.5 | 0.00 | 0.00 | 0.00 | 51 | 1007.4 |
| 20260506111512 | 18 | 174 | 4.8 | 17.7 | 0.00 | 0.00 | 0.00 | 51 | 1007.5 |
| 20260506110014 | 18 | 172 | 4.8 | 22.5 | 0.00 | 0.00 | 0.00 | 53 | 1007.8 |
| 20260506104518 | 18 | 255 | 1.6 | 25.7 | 0.00 | 0.00 | 0.00 | 52 | 1007.6 |
| 20260506101524 | 18 | 150 | 3.2 | 20.9 | 0.00 | 0.00 | 0.00 | 55 | 1007.5 |
| 20260506100028 | 17 | 174 | 6.4 | 17.7 | 0.00 | 0.00 | 0.00 | 56 | 1007.5 |
| 20260506094516 | 17 | 190 | 6.4 | 20.9 | 0.00 | 0.00 | 0.00 | 58 | 1007.6 |
| 20260506093004 | 17 | 190 | 8.0 | 19.3 | 0.00 | 0.00 | 0.00 | 58 | 1007.5 |
| 20260506091506 | 17 | 190 | 8.0 | 19.3 | 0.00 | 0.00 | 0.00 | 60 | 1007.5 |
| 20260506090008 | 16 | 259 | 3.2 | 20.9 | 0.00 | 0.00 | 0.00 | 63 | 1007.6 |
| 20260506084513 | 15 | 190 | 11.3 | 22.5 | 0.00 | 0.00 | 0.00 | 65 | 1007.5 |
| 20260506081503 | 15 | 190 | 1.6 | 14.5 | 0.00 | 0.00 | 0.00 | 68 | 1007.5 |
| 20260506073015 | 15 | 190 | 4.8 | 25.7 | 0.00 | 0.00 | 0.00 | 66 | 1007.2 |
| 20260506071519 | 15 | 190 | 6.4 | 19.3 | 0.00 | 0.00 | 0.00 | 66 | 1006.8 |
| 20260506061517 | 15 | 190 | 3.2 | 17.7 | 0.00 | 0.00 | 0.00 | 68 | 1006.5 |
| 20260506034521 | 11 | 190 | 3.2 | 9.7 | 0.00 | 0.00 | 0.00 | 75 | 1005.5 |
| 20260506033024 | 11 | 190 | 0.0 | 4.8 | 0.00 | 0.00 | 0.00 | 77 | 1005.4 |
| 20260506031526 | 11 | 190 | 0.0 | 1.6 | 0.00 | 0.00 | 0.00 | 77 | 1005.4 |
| 20260506024544 | 11 | 190 | 3.2 | 9.7 | 0.00 | 0.00 | 0.00 | 74 | 1005.3 |
| 20260506023020 | 11 | 190 | 0.0 | 0.0 | 0.00 | 0.00 | 0.00 | 76 | 1005.6 |
| 20260506021524 | 12 | 190 | 1.6 | 8.0 | 0.00 | 0.00 | 0.00 | 71 | 1005.8 |
| 20260506020024 | 11 | 190 | 0.0 | 0.0 | 0.00 | 0.00 | 0.00 | 71 | 1005.8 |
| 20260506014527 | 12 | 190 | 1.6 | 6.4 | 0.00 | 0.00 | 0.00 | 70 | 1005.8 |
| 20260506013023 | 12 | 190 | 0.0 | 4.8 | 0.00 | 0.00 | 0.00 | 70 | 1005.9 |
| 20260506011520 | 12 | 190 | 0.0 | 4.8 | 0.00 | 0.00 | 0.00 | 70 | 1005.8 |
| 20260506010029 | 12 | 190 | 0.0 | 14.5 | 0.00 | 0.00 | 0.00 | 69 | 1005.7 |
| 20260506004524 | 12 | 190 | 3.2 | 6.4 | 0.00 | 0.00 | 0.00 | 69 | 1005.7 |
| 20260506003005 | 12 | 190 | 1.6 | 9.7 | 0.00 | 0.00 | 0.00 | 69 | 1005.5 |